[Iaude] MPEC P08: 2024 OX1 [a=1.32,e=0.16,i=11.1,H=23.9]

mpec at cfa.harvard.edu mpec at cfa.harvard.edu
Thu Aug 1 06:55:22 EDT 2024


M.P.E.C. 2024-P08                                Issued 2024 August 1, 10:54 UT

     The Minor Planet Electronic Circulars contain information on unusual
         minor planets, routine data on comets and natural satellites,
         and occasional editorial announcements.  They are published
    on behalf of Division F of the International Astronomical Union by the
          Minor Planet Center, Smithsonian Astrophysical Observatory,
                          Cambridge, MA 02138, U.S.A.
			  
             Prepared using the Tamkin Foundation Computer Network

                              MPC at CFA.HARVARD.EDU
            URL https://www.minorplanetcenter.net/    ISSN 1523-6714

                                    2024 OX1                                    


Observations:
     K24O01X* C2024 07 27.51653422 48 04.001-17 15 18.99         21.08wXEP008F52
     K24O01X  C2024 07 27.52839522 48 02.129-17 14 17.30         20.91wXEP008F52
     K24O01X  C2024 07 27.55211322 47 58.389-17 12 13.51         21.14wXEP008F52
     K24O01X  C2024 07 27.59540022 47 51.584-17 08 26.04         20.98GVEP008F51
     K24O01X  C2024 07 27.59604522 47 51.490-17 08 22.76         20.94GVEP008F51
     K24O01X  C2024 07 28.44892722 46 04.450-15 53 55.59         20.89wXEP008F51
     K24O01X  C2024 07 28.45992922 46 02.732-15 52 58.80         21.05wXEP008F51
     K24O01X  C2024 07 28.47092722 46 00.978-15 52 01.41         21.00wXEP008F51
     K24O01X  C2024 07 28.48193922 45 59.225-15 51 04.09         20.83wXEP008F51
     K24O01X !C2024 07 30.40024 22 41 39.20 -13 03 12.2          20.3 GVEP008673
     K24O01X !C2024 07 30.40496 22 41 38.42 -13 02 47.7                VEP008673
     K24O01X !C2024 07 31.40982 22 39 18.08 -11 34 47.6          19.7 GVEP008673
     K24O01X !C2024 07 31.41196 22 39 17.72 -11 34 35.8                VEP008673
     K24O01X !C2024 08 01.35255 22 37 05.60 -10 12 29.8          20.1 GVEP008673
     K24O01X !C2024 08 01.35517 22 37 05.20 -10 12 16.7                VEP008673

Observer details:
673 Table Mountain Observatory, Wrightwood.  Observer J. Pittichova.  1.0-m
    f/15 reflector + CCD.
F51 Pan-STARRS 1, Haleakala.  Observers J. Herman, T. Lowe, P. Minguez, A.
    Schultz, I. Smith.  Measurers K. Chambers, T. de Boer, J. Fairlamb, H.
    Gao, M. Huber, C.-C. Lin, E. Magnier, Y. Ramanjooloo, R. Wainscoat, R.
    Weryk.  1.8-m Ritchey-Chretien + CCD.
F52 Pan-STARRS 2, Haleakala.  Observers J. Herman, T. Lowe, P. Minguez, A.
    Schultz, I. Smith.  Measurers K. Chambers, T. de Boer, J. Fairlamb, H.
    Gao, M. Huber, C.-C. Lin, E. Magnier, Y. Ramanjooloo, R. Wainscoat, R.
    Weryk.  1.8-m Ritchey-Chretien + CCD.

Orbital elements:
2024 OX1                                                 Earth MOID = 0.1068 AU
Epoch 2024 Oct. 17.0 TT = JDT 2460600.5                 Veres                   
M  66.94882              (2000.0)            P               Q                  
n   0.64977781     Peri.  335.54334     +0.32180252     +0.93633018             
a   1.3201587      Node   312.88850     -0.83405022     +0.21012932             
e   0.1581287      Incl.   11.05241     -0.44811089     +0.28130315             
P   1.52           H   23.95          G   0.15           U   8                  
Residuals in seconds of arc
240727 F52  0.1-  0.2+    240728 F51  0.1-  0.2+    240730 673  0.1-  0.2-
240727 F52  0.1-  0.0     240728 F51  0.1+  0.1-    240731 673  0.4-  0.5-
240727 F52  0.1+  0.2-    240728 F51  0.0   0.0     240731 673  0.4-  0.1+
240727 F51  0.1+  0.1-    240728 F51  0.1+  0.0     240801 673  0.5-  0.2+
240727 F51  0.2+  0.2-    240730 673  0.1+  0.1+    240801 673  0.1+  0.3-

Ephemeris:
2024 OX1                 a,e,i = 1.32, 0.16, 11                  q = 1.1114
Date    TT    R. A. (2000) Decl.     Delta      r    Elong.  Phase     V
2024 07 02    23 14 42.7 -46 35 16   0.1637  1.1116   121.8    51.1    22.1
...
2024 07 17    23 06 31.6 -31 29 47   0.1334  1.1136   134.3    40.8    21.4
...
2024 07 25    22 53 14.4 -20 51 29   0.1241  1.1181   143.6    32.6    21.0
...
2024 07 31    22 40 15.6 -12 09 51   0.1219  1.1230   150.7    26.2    20.8
2024 08 01    22 37 54.7 -10 42 27   0.1219  1.1240   151.8    25.2    20.8
2024 08 02    22 35 31.3 -09 15 31   0.1221  1.1249   152.8    24.3    20.8
...
2024 08 08    22 20 41.6 -00 56 01   0.1262  1.1314   157.3    20.2    20.7
...
2024 08 16    22 01 19.6 +08 21 31   0.1387  1.1419   157.4    19.9    20.9
...
2024 08 31    21 33 45.8 +18 41 21   0.1796  1.1663   148.4    26.9    21.8

M. P. C. Staff               (C) Copyright 2024 MPC           M.P.E.C. 2024-P08





More information about the Iaude mailing list